Lid_Strength_Index
16 15 16 16 17 16 18 17 19 18 17 14 13 12 13 13 13 13 12 11 11 11 11 10 10 10 10 9 9 10 10 10 10 10 9 9 9 9 8 8 8 8 7 7
22 16 16 17 16 16 16 16 16 16 16 12 13 14 14 13 12 12 11 11 11 11 11 11 11 10 9 10 9 9 10 9 9 9 9 9 9 9 9 8 8 8 8 8
19 17 17 22 17 15 16 15 15 17 15 14 14 13 13 13 12 12 11 11 11 11 11 11 11 10 11 10 10 9 9 9 9 9 9 9 9 9 9 9 8 9 8 8
18 17 25 17 13 13 14 13 13 13 13 12 12 11 11 11 12 12 11 10 10 10 10 10 10 9 9 9 9 9 9 9 8 8 9 9 9 9 9 9 9 8 8 8
17 19 17 14 13 14 14 14 12 13 12 11 10 11 11 8 9 9 10 9 9 9 9 10 9 9 9 9 9 9 9 9 8 8 8 8 9 9 8 8 8 8 7 7
15 18 20 16 13 11 12 16 11 10 11 11 10 14 12 7 8 8 7 7 8 8 8 8 8 8 8 7 8 8 8 8 8 8 8 9 9 8 8 8 8 7 8 7
15 16 15 12 11 10 15 15 10 10 9 10 11 10 9 8 8 7 7 8 7 7 8 8 7 7 7 7 8 7 7 7 7 7 8 8 9 8 8 8 8 8 8 7
16 16 17 11 11 13 10 9 9 9 9 9 9 9 8 8 8 7 7 7 7 7 8 7 6 6 7 7 6 7 7 7 7 7 7 7 8 8 8 8 8 8 8 8
14 14 9 8 9 8 8 9 9 10 9 9 9 9 8 8 7 7 8 8 7 8 7 6 6 7 7 6 6 6 7 7 7 6 6 7 8 8 8 8 8 8 8 8
13 13 11 9 8 8 8 8 8 8 8 8 8 8 8 7 8 8 8 8 8 8 8 7 7 7 7 6 6 6 7 7 7 6 6 6 6 7 8 8 8 8 7 8
13 12 10 10 10 9 8 8 7 7 7 7 7 7 8 8 8 8 8 8 8 8 8 8 8 8 7 7 7 7 7 6 6 6 6 6 6 6 7 6 6 7 7 6
15 12 11 12 9 9 9 8 7 7 7 7 7 7 8 8 8 8 8 8 8 7 8 8 7 7 7 6 6 7 7 7 6 6 5 6 6 6 5 4 4 5 5 5
11 9 9 9 8 7 7 7 7 7 7 7 7 7 7 8 8 6 6 7 7 7 6 6 7 6 6 6 6 6 7 7 6 5 6 6 6 7 7 6 5 5 4 4
8 8 10 8 8 6 6 6 6 7 6 6 6 7 7 7 6 6 7 6 6 6 6 6 6 6 5 6 6 6 6 5 6 6 6 6 6 7 7 7 8 7 5 4
8 5 5 5 5 5 6 6 6 6 6 7 6 7 6 6 7 6 5 5 6 6 6 6 6 6 5 5 6 6 6 6 6 5 6 6 6 6 7 7 8 7 6 6
5 5 5 5 5 5 5 6 7 6 6 6 6 5 5 5 6 6 6 5 7 6 6 6 6 5 5 5 6 6 6 5 5 6 6 6 6 7 7 8 8 8 7 7
6 7 6 6 6 7 7 6 6 6 6 5 5 5 5 5 6 6 5 5 5 6 6 6 6 5 5 6 6 6 6 6 5 6 7 6 6 7 7 8 9 9 8 6
4 5 6 5 7 6 7 6 6 6 6 5 5 6 6 6 6 6 5 5 6 6 5 5 6 6 6 6 6 6 6 6 6 7 6 6 7 7 7 8 9 9 8 7
5 6 6 5 5 6 6 6 6 5 5 5 6 6 6 6 6 6 6 6 7 7 6 6 5 5 6 6 5 6 6 6 7 7 6 6 7 8 9 10 10 9 8 8
6 6 5 5 5 6 6 5 6 6 5 6 6 7 7 6 6 6 6 7 6 6 6 6 6 6 6 6 5 6 6 6 7 7 7 8 8 9 10 10 10 10 9 9
6 6 6 7 6 6 6 5 6 7 6 6 7 7 7 6 6 6 7 8 6 5 5 4 5 6 6 6 5 5 6 6 7 7 8 9 10 10 11 10 10 10 10 10
6 6 6 6 6 6 5 5 5 6 6 6 6 6 7 7 7 7 7 7 6 4 5 6 6 6 6 4 5 6 6 7 8 9 10 11 11 11 11 10 10 11 11 11
5 5 5 5 6 6 5 5 6 6 7 7 7 7 7 7 7 8 9 7 6 6 6 6 5 4 4 5 5 6 8 9 10 11 11 12 12 12 11 11 12 12 13 14
5 5 6 5 6 6 7 7 6 7 7 7 7 7 8 8 8 7 7 6 5 5 6 6 5 4 4 6 7 8 10 11 11 12 12 12 13 13 13 13 14 14 14 14
6 7 7 8 8 8 8 8 9 9 9 9 9 8 8 8 9 8 8 8 6 6 7 6 5 5 7 8 10 11 11 12 12 13 14 14 14 14 14 14 14 14 14 15
8 8 8 8 9 9 9 9 10 9 9 10 9 8 8 8 8 8 8 7 8 7 8 8 8 7 9 10 11 12 12 13 14 14 14 15 15 15 15 15 14 15 15 15
8 7 9 9 9 9 9 9 9 9 8 9 9 8 8 9 9 8 7 9 9 9 9 9 9 10 10 11 12 13 14 14 14 15 15 16 16 15 15 15 15 15 15 15